sat.trackr.live / text

‹ back to catalog

STARLINK-33598

NORAD 62771 · 2025-015P

PAYLOAD ACTIVE UNKNOWN

§ Identity

Operator
Country
US
Launch date
2025-01-21
Launch site
AFWTR
Launch vehicle
Mass (kg)
RCS (m²)

Purposes: comms

External: N2YO · Heavens-Above · Gunter

§ Orbital elements

Epoch: 2026-09-21T21:19:40.608480Z

Period
93.85 min
Inclination
53.1595°
Eccentricity
0.0001512
Mean motion
15.34401072 rev/d
Perigee alt
461.7 km
Apogee alt
463.7 km
Semi-major
6,840.8 km
B*
3.1866e-4
RAAN
127.3259°
Arg perigee
135.6420°
Mean anomaly
224.4704°
Rev number
9,457

§ Raw data

STARLINK-335981 62771U 25015P   26264.88866445  .00010406  00000+0  31866-3 0  99922 62771  53.1595 127.3259 0001512 135.6420 224.4704 15.34401072 94577

JSON: /api/v1/satellites/62771 · /tle

For live sub-satellite position, see the globe view (requires WebGL).

§ Visibility from observer

Set your observer location to see the next 7 days of passes ≥ 10°. The values pass through the URL so the page stays shareable.

No JS? Fill the form by hand. The geolocation button needs JavaScript.